• Em Portugal
  • Lista de países
  • Para 7 dias
  • Temperatura da água
  • Mapas de satélite
  • Mapa do tempo
  • Widgets de tempo
  • user-avatar
    Iniciar Sessão

    Previsão horária em Madinat 'Isa

    Hoje, 23 Janeiro, Terça-feira

    Tempo Temperatura Precipitação Vento Pressão Humidade
    00:00 +15°C° 0 mm 1 m/s 762 mmHg 69%
    01:00 +15°C° 0 mm 1 m/s 762 mmHg 70%
    02:00 +15°C° 0 mm 1 m/s 762 mmHg 70%
    03:00 +14°C° 0 mm 1 m/s 762 mmHg 72%
    04:00 +14°C° 0 mm 1 m/s 762 mmHg 71%
    05:00 +14°C° 0 mm 1 m/s 762 mmHg 69%
    06:00 +14°C° 0 mm 1 m/s 762 mmHg 68%
    07:00 +15°C° 0 mm 2 m/s 762 mmHg 62%
    08:00 +17°C° 0 mm 2 m/s 762 mmHg 56%
    09:00 +18°C° 0 mm 2 m/s 762 mmHg 47%
    10:00 +19°C° 0 mm 3 m/s 762 mmHg 42%
    11:00 +20°C° 0 mm 3 m/s 761 mmHg 38%
    12:00 +21°C° 0 mm 3 m/s 761 mmHg 33%
    13:00 +21°C° 0 mm 3 m/s 761 mmHg 32%
    14:00 +22°C° 0 mm 3 m/s 760 mmHg 30%
    15:00 +22°C° 0 mm 3 m/s 760 mmHg 29%
    16:00 +22°C° 0 mm 4 m/s 760 mmHg 33%
    17:00 +21°C° 0 mm 4 m/s 760 mmHg 37%
    18:00 +20°C° 0 mm 4 m/s 760 mmHg 41%
    19:00 +20°C° 0 mm 4 m/s 760 mmHg 42%
    20:00 +20°C° 0 mm 5 m/s 760 mmHg 42%
    21:00 +20°C° 0 mm 5 m/s 760 mmHg 42%
    22:00 +20°C° 0 mm 5 m/s 760 mmHg 42%
    23:00 +20°C° 0 mm 6 m/s 760 mmHg 42%

    Amanhã, 24 Janeiro, Quarta-feira

    Tempo Temperatura Precipitação Vento Pressão Humidade
    00:00 +20°C° 0 mm 6 m/s 760 mmHg 42%
    01:00 +20°C° 0 mm 6 m/s 760 mmHg 39%
    02:00 +19°C° 0 mm 5 m/s 759 mmHg 37%
    03:00 +19°C° 0 mm 5 m/s 759 mmHg 35%
    04:00 +19°C° 0 mm 4 m/s 760 mmHg 33%
    05:00 +19°C° 0 mm 4 m/s 760 mmHg 30%
    06:00 +18°C° 0 mm 4 m/s 760 mmHg 28%
    07:00 +19°C° 0 mm 4 m/s 760 mmHg 27%
    08:00 +20°C° 0 mm 4 m/s 761 mmHg 25%
    09:00 +21°C° 0 mm 5 m/s 761 mmHg 23%
    10:00 +22°C° 0 mm 5 m/s 761 mmHg 21%
    11:00 +23°C° 0 mm 4 m/s 760 mmHg 19%
    12:00 +25°C° 0 mm 4 m/s 760 mmHg 17%
    13:00 +26°C° 0 mm 3 m/s 760 mmHg 17%
    14:00 +26°C° 0 mm 3 m/s 760 mmHg 17%
    15:00 +27°C° 0 mm 2 m/s 759 mmHg 17%
    16:00 +26°C° 0 mm 3 m/s 759 mmHg 20%
    17:00 +25°C° 0 mm 3 m/s 760 mmHg 22%
    18:00 +23°C° 0 mm 4 m/s 760 mmHg 25%
    19:00 +23°C° 0 mm 4 m/s 760 mmHg 26%
    20:00 +23°C° 0 mm 4 m/s 760 mmHg 27%
    21:00 +22°C° 0 mm 4 m/s 760 mmHg 29%
    22:00 +22°C° 0 mm 4 m/s 760 mmHg 32%
    23:00 +22°C° 0 mm 4 m/s 760 mmHg 34%

    Depois de amanhã, 25 Janeiro, Quinta-feira

    Tempo Temperatura Precipitação Vento Pressão Humidade
    00:00 +21°C° 0 mm 3 m/s 760 mmHg 37%
    01:00 +21°C° 0 mm 3 m/s 760 mmHg 38%
    02:00 +20°C° 0 mm 3 m/s 760 mmHg 39%
    03:00 +20°C° 0 mm 2 m/s 760 mmHg 40%
    04:00 +20°C° 0 mm 2 m/s 760 mmHg 39%
    05:00 +19°C° 0 mm 2 m/s 760 mmHg 39%
    06:00 +19°C° 0 mm 2 m/s 760 mmHg 38%
    07:00 +20°C° 0 mm 2 m/s 760 mmHg 34%
    08:00 +21°C° 0 mm 2 m/s 761 mmHg 30%
    09:00 +24°C° 0 mm 2 m/s 761 mmHg 26%
    10:00 +24°C° 0 mm 2 m/s 761 mmHg 24%
    11:00 +25°C° 0 mm 2 m/s 760 mmHg 22%
    12:00 +26°C° 0 mm 2 m/s 760 mmHg 19%
    13:00 +26°C° 0 mm 2 m/s 760 mmHg 19%
    14:00 +27°C° 0 mm 2 m/s 759 mmHg 19%
    15:00 +27°C° 0 mm 2 m/s 758 mmHg 19%
    16:00 +26°C° 0 mm 3 m/s 759 mmHg 22%
    17:00 +25°C° 0 mm 3 m/s 759 mmHg 24%
    18:00 +25°C° 0 mm 4 m/s 759 mmHg 27%
    19:00 +23°C° 0 mm 4 m/s 759 mmHg 32%
    20:00 +23°C° 0 mm 5 m/s 759 mmHg 38%
    21:00 +23°C° 0 mm 5 m/s 759 mmHg 43%
    22:00 +22°C° 0 mm 5 m/s 759 mmHg 45%
    23:00 +22°C° 0 mm 5 m/s 759 mmHg 47%

    26 Janeiro, Sexta-feira

    Tempo Temperatura Precipitação Vento Pressão Humidade
    00:00 +21°C° 0 mm 5 m/s 759 mmHg 50%
    01:00 +21°C° 0 mm 5 m/s 759 mmHg 48%
    02:00 +21°C° 0 mm 4 m/s 759 mmHg 47%
    03:00 +21°C° 0 mm 4 m/s 758 mmHg 46%
    04:00 +20°C° 0 mm 4 m/s 759 mmHg 47%
    05:00 +20°C° 0 mm 4 m/s 759 mmHg 47%
    06:00 +20°C° 0 mm 4 m/s 759 mmHg 48%
    07:00 +21°C° 0 mm 5 m/s 759 mmHg 43%
    08:00 +22°C° 0 mm 5 m/s 760 mmHg 39%
    09:00 +23°C° 0 mm 5 m/s 760 mmHg 35%
    10:00 +25°C° 0 mm 5 m/s 760 mmHg 30%
    11:00 +27°C° 0 mm 4 m/s 759 mmHg 26%
    12:00 +28°C° 0 mm 4 m/s 759 mmHg 21%
    13:00 +29°C° 0 mm 4 m/s 759 mmHg 20%
    14:00 +29°C° 0 mm 4 m/s 758 mmHg 20%
    15:00 +30°C° 0 mm 3 m/s 758 mmHg 19%
    16:00 +29°C° 0 mm 4 m/s 758 mmHg 20%
    17:00 +28°C° 0 mm 4 m/s 758 mmHg 22%
    18:00 +26°C° 0 mm 4 m/s 758 mmHg 24%
    19:00 +26°C° 0 mm 4 m/s 758 mmHg 26%
    20:00 +25°C° 0 mm 4 m/s 759 mmHg 28%
    21:00 +23°C° 0 mm 4 m/s 759 mmHg 31%
    22:00 +24°C° 0 mm 3 m/s 759 mmHg 31%
    23:00 +22°C° 0 mm 3 m/s 759 mmHg 32%

    27 Janeiro, Sábado

    Tempo Temperatura Precipitação Vento Pressão Humidade
    00:00 +23°C° 0 mm 2 m/s 759 mmHg 33%
    01:00 +22°C° 0 mm 3 m/s 759 mmHg 35%
    02:00 +21°C° 0 mm 3 m/s 759 mmHg 38%
    03:00 +21°C° 0 mm 3 m/s 759 mmHg 40%
    04:00 +21°C° 0 mm 3 m/s 759 mmHg 44%
    05:00 +21°C° 0 mm 4 m/s 759 mmHg 47%
    06:00 +21°C° 0 mm 4 m/s 759 mmHg 51%
    07:00 +21°C° 0 mm 4 m/s 759 mmHg 49%
    08:00 +22°C° 0 mm 4 m/s 760 mmHg 48%
    09:00 +23°C° 0 mm 4 m/s 760 mmHg 46%
    10:00 +25°C° 0 mm 4 m/s 760 mmHg 43%
    11:00 +26°C° 0 mm 4 m/s 759 mmHg 41%
    12:00 +26°C° 0 mm 4 m/s 759 mmHg 39%
    13:00 +26°C° 0 mm 4 m/s 758 mmHg 40%
    14:00 +26°C° 0 mm 4 m/s 758 mmHg 41%
    15:00 +26°C° 0 mm 4 m/s 758 mmHg 42%
    16:00 +25°C° 0 mm 5 m/s 758 mmHg 47%
    17:00 +23°C° 0 mm 5 m/s 758 mmHg 52%
    18:00 +22°C° 0 mm 5 m/s 758 mmHg 58%
    19:00 +21°C° 0 mm 6 m/s 759 mmHg 60%
    20:00 +21°C° 0 mm 6 m/s 759 mmHg 63%
    21:00 +20°C° 0 mm 7 m/s 760 mmHg 66%
    22:00 +20°C° 0 mm 8 m/s 760 mmHg 64%
    23:00 +19°C° 0 mm 9 m/s 760 mmHg 61%

    28 Janeiro, Domingo

    Tempo Temperatura Precipitação Vento Pressão Humidade
    00:00 +19°C° 0 mm 9 m/s 760 mmHg 59%
    01:00 +18°C° 0 mm 10 m/s 760 mmHg 56%
    02:00 +18°C° 0 mm 11 m/s 760 mmHg 54%
    03:00 +18°C° 0 mm 12 m/s 760 mmHg 51%
    04:00 +17°C° 0 mm 12 m/s 760 mmHg 49%
    05:00 +17°C° 0 mm 12 m/s 761 mmHg 46%
    06:00 +17°C° 0 mm 12 m/s 761 mmHg 43%
    07:00 +17°C° 0 mm 12 m/s 762 mmHg 40%
    08:00 +17°C° 0 mm 11 m/s 763 mmHg 36%
    09:00 +18°C° 0 mm 11 m/s 763 mmHg 32%
    10:00 +18°C° 0 mm 11 m/s 763 mmHg 32%
    11:00 +19°C° 0 mm 11 m/s 763 mmHg 32%
    12:00 +19°C° 0 mm 10 m/s 762 mmHg 32%
    13:00 +19°C° 0 mm 10 m/s 762 mmHg 32%
    14:00 +19°C° 0 mm 10 m/s 762 mmHg 32%
    15:00 +19°C° 0 mm 9 m/s 761 mmHg 32%
    16:00 +18°C° 0 mm 9 m/s 762 mmHg 35%
    17:00 +18°C° 0 mm 9 m/s 762 mmHg 37%
    18:00 +17°C° 0 mm 9 m/s 762 mmHg 40%
    19:00 +17°C° 0 mm 9 m/s 763 mmHg 41%
    20:00 +17°C° 0 mm 9 m/s 763 mmHg 43%
    21:00 +16°C° 0 mm 9 m/s 763 mmHg 44%
    22:00 +16°C° 0 mm 9 m/s 763 mmHg 44%
    23:00 +16°C° 0 mm 9 m/s 763 mmHg 44%
    Mostrar mais